Time,TemperatureF,DewpointF,PressureIn,WindDirection,WindDirectionDegrees,WindSpeedMPH,WindSpeedGustMPH,Humidity,HourlyPrecipIn,Conditions,Clouds,dailyrainin,SolarRadiationWatts/m^2,SoftwareType,DateUTC
2013-02-26 00:00:00,39.3,36.0,29.92,NE,44,13.0,18.0,88,0.01,,-RA,0.02,0.00,VWS V14.01,2013-02-26 05:00:00,
2013-02-26 00:05:00,39.6,36.6,29.91,ENE,62,12.0,16.0,89,0.01,,-RA,0.00,0.00,VWS V14.01,2013-02-26 05:05:00,
2013-02-26 00:10:00,39.2,36.2,29.91,ENE,64,15.0,18.0,89,0.01,,-RA,0.00,0.00,VWS V14.01,2013-02-26 05:10:00,
2013-02-26 00:15:00,38.9,35.9,29.91,NE,44,12.0,18.0,89,0.01,,-RA,0.00,0.00,VWS V14.01,2013-02-26 05:15:00,
2013-02-26 00:20:00,39.5,36.8,29.90,NE,46,10.0,23.0,90,0.01,,-RA,0.00,0.00,VWS V14.01,2013-02-26 05:20:00,
2013-02-26 00:25:00,39.5,36.8,29.90,ENE,69,12.0,23.0,90,0.01,,-RA,0.00,0.00,VWS V14.01,2013-02-26 05:25:00,
2013-02-26 00:30:00,38.9,35.9,29.90,ENE,61,14.0,23.0,89,0.01,,-RA,0.00,0.00,VWS V14.01,2013-02-26 05:30:00,
2013-02-26 00:35:00,38.8,36.1,29.89,ENE,68,14.0,21.0,90,0.01,,-RA,0.00,0.00,VWS V14.01,2013-02-26 05:35:00,
2013-02-26 00:40:00,38.8,36.1,29.89,ENE,67,8.0,21.0,90,0.01,,-RA,0.00,0.00,VWS V14.01,2013-02-26 05:40:00,
2013-02-26 00:45:00,38.8,36.4,29.89,NNE,30,10.0,21.0,91,0.01,,-RA,0.00,0.00,VWS V14.01,2013-02-26 05:45:00,
2013-02-26 00:50:00,38.5,36.1,29.88,ENE,59,10.0,21.0,91,0.01,,-RA,0.00,0.00,VWS V14.01,2013-02-26 05:50:00,
2013-02-26 00:55:00,38.3,35.9,29.88,NE,56,7.0,21.0,91,0.01,,-RA,0.00,0.00,VWS V14.01,2013-02-26 05:55:00,
2013-02-26 01:00:00,38.6,36.5,29.88,ENE,59,11.0,21.0,92,0.01,,-RA,0.00,0.00,VWS V14.01,2013-02-26 06:00:00,
2013-02-26 01:05:00,38.3,36.2,29.88,NE,48,11.0,14.0,92,0.01,,-RA,0.01,0.00,VWS V14.01,2013-02-26 06:05:00,
2013-02-26 01:10:00,38.2,36.1,29.88,NE,51,10.0,14.0,92,0.01,,-RA,0.01,0.00,VWS V14.01,2013-02-26 06:10:00,
2013-02-26 01:15:00,38.8,37.0,29.88,ENE,71,9.0,14.0,93,0.01,,-RA,0.01,0.00,VWS V14.01,2013-02-26 06:15:00,
2013-02-26 01:20:00,38.3,36.5,29.87,ENE,62,7.0,17.0,93,0.01,,-RA,0.01,0.00,VWS V14.01,2013-02-26 06:20:00,
2013-02-26 01:25:00,38.2,36.1,29.87,NE,40,11.0,17.0,92,0.01,,-RA,0.01,0.00,VWS V14.01,2013-02-26 06:25:00,
2013-02-26 01:30:00,38.3,36.2,29.87,ENE,76,9.0,17.0,92,0.01,,-RA,0.01,0.00,VWS V14.01,2013-02-26 06:30:00,
2013-02-26 01:35:00,38.5,36.7,29.86,NE,56,11.0,13.0,93,0.01,,-RA,0.01,0.00,VWS V14.01,2013-02-26 06:35:00,
2013-02-26 01:40:00,38.0,35.9,29.86,ENE,70,9.0,14.0,92,0.01,,-RA,0.01,0.00,VWS V14.01,2013-02-26 06:40:00,
2013-02-26 01:45:00,38.3,36.5,29.86,NE,53,10.0,15.0,93,0.01,,-RA,0.01,0.00,VWS V14.01,2013-02-26 06:45:00,
2013-02-26 01:50:00,38.2,36.4,29.85,East,90,15.0,16.0,93,0.01,,-RA,0.01,0.00,VWS V14.01,2013-02-26 06:50:00,
2013-02-26 01:55:00,38.2,36.4,29.85,NE,46,11.0,19.0,93,0.01,,-RA,0.01,0.00,VWS V14.01,2013-02-26 06:55:00,
2013-02-26 02:00:00,38.2,36.4,29.85,ENE,73,10.0,19.0,93,0.01,,-RA,0.01,0.00,VWS V14.01,2013-02-26 07:00:00,
2013-02-26 02:05:00,38.0,36.2,29.84,NE,55,11.0,13.0,93,0.00,,-RA,0.01,0.00,VWS V14.01,2013-02-26 07:05:00,
2013-02-26 02:10:00,38.3,37.5,29.84,NE,53,11.0,15.0,97,0.03,,-RA,0.04,0.00,VWS V14.01,2013-02-26 07:10:00,
2013-02-26 02:15:00,38.2,36.4,29.84,NE,54,11.0,17.0,93,0.03,,-RA,0.04,0.00,VWS V14.01,2013-02-26 07:15:00,
2013-02-26 02:20:00,38.2,36.4,29.83,ENE,57,6.0,20.0,93,0.04,,-RA,0.05,0.00,VWS V14.01,2013-02-26 07:20:00,
2013-02-26 02:25:00,38.3,36.7,29.83,NNE,30,11.0,20.0,94,0.05,, +RA,0.06,0.00,VWS V14.01,2013-02-26 07:25:00,
2013-02-26 02:30:00,38.2,36.4,29.83,ENE,74,12.0,20.0,93,0.07,, +RA,0.08,0.00,VWS V14.01,2013-02-26 07:30:00,
2013-02-26 02:35:00,38.3,36.5,29.82,ENE,66,14.0,16.0,93,0.09,, +RA,0.10,0.00,VWS V14.01,2013-02-26 07:35:00,
2013-02-26 02:40:00,38.6,37.0,29.82,ENE,63,9.0,16.0,94,0.10,, +RA,0.11,0.00,VWS V14.01,2013-02-26 07:40:00,
2013-02-26 02:45:00,38.2,36.4,29.82,NE,51,7.0,16.0,93,0.12,, +RA,0.13,0.00,VWS V14.01,2013-02-26 07:45:00,
2013-02-26 02:50:00,38.5,36.9,29.82,ENE,65,10.0,16.0,94,0.13,, +RA,0.14,0.00,VWS V14.01,2013-02-26 07:50:00,
2013-02-26 02:55:00,38.8,37.2,29.82,ENE,69,12.0,16.0,94,0.14,, +RA,0.15,0.00,VWS V14.01,2013-02-26 07:55:00,
2013-02-26 03:00:00,38.6,37.0,29.82,ENE,69,11.0,16.0,94,0.16,, +RA,0.17,0.00,VWS V14.01,2013-02-26 08:00:00,
2013-02-26 03:05:00,38.3,36.2,29.82,ESE,104,8.0,9.0,92,0.17,,RA,0.18,0.00,VWS V14.01,2013-02-26 08:05:00,
2013-02-26 03:10:00,38.6,37.0,29.82,East,92,6.0,11.0,94,0.18,,RA,0.19,0.00,VWS V14.01,2013-02-26 08:10:00,
2013-02-26 03:15:00,38.3,36.5,29.82,ENE,65,10.0,11.0,93,0.20,,RA,0.21,0.00,VWS V14.01,2013-02-26 08:15:00,
2013-02-26 03:20:00,38.5,36.7,29.81,NE,52,6.0,12.0,93,0.20,,RA,0.21,0.00,VWS V14.01,2013-02-26 08:20:00,
2013-02-26 03:25:00,38.5,36.7,29.81,East,86,10.0,13.0,93,0.22,,RA,0.23,0.00,VWS V14.01,2013-02-26 08:25:00,
2013-02-26 03:30:00,38.5,36.7,29.81,ENE,59,8.0,13.0,93,0.23,,RA,0.24,0.00,VWS V14.01,2013-02-26 08:30:00,
2013-02-26 03:35:00,38.8,37.0,29.81,ENE,73,11.0,14.0,93,0.16,,RA,0.25,0.00,VWS V14.01,2013-02-26 08:35:00,
2013-02-26 03:40:00,38.8,37.0,29.81,ENE,76,9.0,15.0,93,0.17,,RA,0.26,0.00,VWS V14.01,2013-02-26 08:40:00,
2013-02-26 03:45:00,38.6,36.8,29.81,ENE,58,10.0,16.0,93,0.18,,RA,0.27,0.00,VWS V14.01,2013-02-26 08:45:00,
2013-02-26 03:50:00,39.1,37.5,29.80,ENE,58,9.0,16.0,94,0.20,,RA,0.29,0.00,VWS V14.01,2013-02-26 08:50:00,
2013-02-26 03:55:00,38.8,37.0,29.80,East,88,12.0,16.0,93,0.21,,RA,0.30,0.00,VWS V14.01,2013-02-26 08:55:00,
2013-02-26 04:00:00,39.2,37.6,29.80,ENE,61,13.0,19.0,94,0.22,,RA,0.31,0.00,VWS V14.01,2013-02-26 09:00:00,
2013-02-26 04:05:00,38.9,37.0,29.79,ENE,59,6.0,17.0,93,0.15,, +RA,0.32,0.00,VWS V14.01,2013-02-26 09:05:00,
2013-02-26 04:10:00,39.2,37.6,29.79,ENE,70,13.0,17.0,94,0.18,, +RA,0.35,0.00,VWS V14.01,2013-02-26 09:10:00,
2013-02-26 04:15:00,38.6,36.8,29.79,NE,56,14.0,18.0,93,0.21,, +RA,0.38,0.00,VWS V14.01,2013-02-26 09:15:00,
2013-02-26 04:20:00,38.5,36.7,29.75,NE,34,10.0,18.0,93,0.23,, +RA,0.40,0.00,VWS V14.01,2013-02-26 09:20:00,
2013-02-26 04:25:00,38.5,36.7,29.75,ENE,61,13.0,18.0,93,0.25,, +RA,0.42,0.00,VWS V14.01,2013-02-26 09:25:00,
2013-02-26 04:30:00,38.5,36.7,29.75,NE,53,10.0,18.0,93,0.27,, +RA,0.44,0.00,VWS V14.01,2013-02-26 09:30:00,
2013-02-26 04:35:00,38.3,36.2,29.76,ENE,61,9.0,14.0,92,0.19,, +RA,0.44,0.00,VWS V14.01,2013-02-26 09:35:00,
2013-02-26 04:40:00,38.8,37.0,29.76,ESE,104,7.0,17.0,93,0.20,, +RA,0.45,0.00,VWS V14.01,2013-02-26 09:40:00,
2013-02-26 04:45:00,38.8,37.0,29.76,NE,53,15.0,18.0,93,0.21,, +RA,0.46,0.00,VWS V14.01,2013-02-26 09:45:00,
2013-02-26 04:50:00,38.8,36.4,29.75,ENE,64,14.0,19.0,91,0.21,, +RA,0.46,0.00,VWS V14.01,2013-02-26 09:50:00,
2013-02-26 04:55:00,38.6,35.9,29.75,ENE,77,13.0,19.0,90,0.21,, +RA,0.46,0.00,VWS V14.01,2013-02-26 09:55:00,
2013-02-26 05:00:00,38.8,36.4,29.75,NE,38,8.0,19.0,91,0.23,, +RA,0.48,0.00,VWS V14.01,2013-02-26 10:00:00,
2013-02-26 05:05:00,38.9,36.8,29.75,ENE,58,9.0,16.0,92,0.19,, +RA,0.50,0.00,VWS V14.01,2013-02-26 10:05:00,
2013-02-26 05:10:00,38.9,36.8,29.75,NE,43,10.0,17.0,92,0.21,, +RA,0.52,0.00,VWS V14.01,2013-02-26 10:10:00,
2013-02-26 05:15:00,38.8,36.7,29.75,East,94,6.0,17.0,92,0.23,, +RA,0.54,0.00,VWS V14.01,2013-02-26 10:15:00,
2013-02-26 05:20:00,39.3,37.5,29.76,ENE,59,13.0,17.0,93,0.25,, +RA,0.56,0.00,VWS V14.01,2013-02-26 10:20:00,
2013-02-26 05:25:00,39.3,37.2,29.76,ENE,70,13.0,19.0,92,0.27,, +RA,0.58,0.00,VWS V14.01,2013-02-26 10:25:00,
2013-02-26 05:30:00,39.3,37.2,29.76,NE,47,11.0,21.0,92,0.29,, +RA,0.60,0.00,VWS V14.01,2013-02-26 10:30:00,
2013-02-26 05:35:00,39.3,37.5,29.75,NE,55,11.0,16.0,93,0.18,, +RA,0.62,0.00,VWS V14.01,2013-02-26 10:35:00,
2013-02-26 05:40:00,39.3,37.5,29.75,NNE,22,11.0,16.0,93,0.20,, +RA,0.64,0.00,VWS V14.01,2013-02-26 10:40:00,
2013-02-26 05:45:00,39.5,37.7,29.75,NNE,26,14.0,21.0,93,0.22,, +RA,0.66,0.00,VWS V14.01,2013-02-26 10:45:00,
2013-02-26 05:50:00,39.8,38.0,29.73,NE,47,10.0,21.0,93,0.23,, +RA,0.67,0.00,VWS V14.01,2013-02-26 10:50:00,
2013-02-26 05:55:00,39.8,38.0,29.73,NE,36,10.0,21.0,93,0.26,, +RA,0.70,0.00,VWS V14.01,2013-02-26 10:55:00,
2013-02-26 06:00:00,39.6,37.5,29.73,NNE,32,8.0,21.0,92,0.28,, +RA,0.72,0.00,VWS V14.01,2013-02-26 11:00:00,
2013-02-26 06:05:00,39.5,37.4,29.74,NE,42,14.0,14.0,92,0.27,, +RA,0.76,0.00,VWS V14.01,2013-02-26 11:05:00,
2013-02-26 06:10:00,40.1,38.2,29.74,ENE,59,15.0,17.0,93,0.31,, +RA,0.80,0.00,VWS V14.01,2013-02-26 11:10:00,
2013-02-26 06:15:00,40.3,38.7,29.74,ENE,66,14.0,18.0,94,0.35,, +RA,0.84,0.00,VWS V14.01,2013-02-26 11:15:00,
2013-02-26 06:20:00,40.3,38.7,29.72,ENE,57,10.0,19.0,94,0.38,, +RA,0.87,0.00,VWS V14.01,2013-02-26 11:20:00,
2013-02-26 06:25:00,40.1,38.5,29.72,ENE,71,9.0,19.0,94,0.40,, +RA,0.89,0.00,VWS V14.01,2013-02-26 11:25:00,
2013-02-26 06:30:00,39.6,37.8,29.72,ENE,62,7.0,19.0,93,0.43,, +RA,0.92,0.00,VWS V14.01,2013-02-26 11:30:00,
2013-02-26 06:35:00,39.6,37.8,29.73,East,79,13.0,14.0,93,0.33,, +RA,0.94,0.00,VWS V14.01,2013-02-26 11:35:00,
2013-02-26 06:40:00,39.6,38.0,29.73,ENE,59,9.0,15.0,94,0.36,, +RA,0.97,0.00,VWS V14.01,2013-02-26 11:40:00,
2013-02-26 06:45:00,39.9,39.1,29.73,NE,54,13.0,16.0,97,0.39,, +RA,1.00,0.00,VWS V14.01,2013-02-26 11:45:00,
2013-02-26 06:50:00,39.8,38.2,29.71,ENE,65,11.0,18.0,94,0.43,, +RA,1.04,0.00,VWS V14.01,2013-02-26 11:50:00,
2013-02-26 06:55:00,40.5,39.2,29.71,East,82,13.0,20.0,95,0.45,, +RA,1.06,0.00,VWS V14.01,2013-02-26 11:55:00,
2013-02-26 07:00:00,40.1,38.5,29.71,ENE,69,11.0,20.0,94,0.46,, +RA,1.07,0.00,VWS V14.01,2013-02-26 12:00:00,
2013-02-26 07:05:00,39.6,37.8,29.70,ENE,65,7.0,13.0,93,0.35,,RA,1.09,0.00,VWS V14.01,2013-02-26 12:05:00,
2013-02-26 07:10:00,39.6,37.8,29.70,ENE,67,10.0,16.0,93,0.36,,RA,1.10,0.00,VWS V14.01,2013-02-26 12:10:00,
2013-02-26 07:15:00,40.1,38.5,29.70,East,82,12.0,17.0,94,0.38,,RA,1.12,0.00,VWS V14.01,2013-02-26 12:15:00,
2013-02-26 07:20:00,39.8,38.0,29.70,ENE,57,9.0,17.0,93,0.39,,RA,1.13,0.00,VWS V14.01,2013-02-26 12:20:00,
2013-02-26 07:25:00,39.6,37.8,29.70,ENE,61,8.0,19.0,93,0.41,,RA,1.15,0.00,VWS V14.01,2013-02-26 12:25:00,
2013-02-26 07:30:00,39.6,37.8,29.70,East,94,7.0,19.0,93,0.42,,RA,1.16,0.00,VWS V14.01,2013-02-26 12:30:00,
2013-02-26 07:35:00,39.9,38.0,29.69,NE,49,9.0,16.0,93,0.24,,RA,1.17,0.00,VWS V14.01,2013-02-26 12:35:00,
2013-02-26 07:40:00,40.1,38.5,29.69,East,80,17.0,18.0,94,0.24,,RA,1.17,5.00,VWS V14.01,2013-02-26 12:40:00,
2013-02-26 07:45:00,40.3,38.7,29.69,ENE,75,6.0,18.0,94,0.26,,RA,1.19,0.00,VWS V14.01,2013-02-26 12:45:00,
2013-02-26 07:50:00,39.9,37.8,29.69,NE,45,12.0,18.0,92,0.27,,RA,1.20,0.00,VWS V14.01,2013-02-26 12:50:00,
2013-02-26 07:55:00,40.1,38.2,29.69,ENE,58,7.0,18.0,93,0.28,,RA,1.21,0.00,VWS V14.01,2013-02-26 12:55:00,
2013-02-26 08:00:00,40.1,38.2,29.69,ENE,65,6.0,18.0,93,0.29,,RA,1.22,9.00,VWS V14.01,2013-02-26 13:00:00,
2013-02-26 08:05:00,40.5,38.6,29.69,ENE,72,5.0,14.0,93,0.16,,RA,1.24,12.00,VWS V14.01,2013-02-26 13:05:00,
2013-02-26 08:10:00,40.3,38.4,29.69,ENE,78,5.0,14.0,93,0.16,,RA,1.24,12.00,VWS V14.01,2013-02-26 13:10:00,
2013-02-26 08:15:00,40.3,38.4,29.69,ENE,61,6.0,19.0,93,0.18,,RA,1.26,12.00,VWS V14.01,2013-02-26 13:15:00,
2013-02-26 08:20:00,40.5,38.6,29.68,East,101,7.0,19.0,93,0.20,,RA,1.28,7.00,VWS V14.01,2013-02-26 13:20:00,
2013-02-26 08:25:00,40.5,38.6,29.68,ENE,73,14.0,19.0,93,0.25,,RA,1.33,7.00,VWS V14.01,2013-02-26 13:25:00,
2013-02-26 08:30:00,40.5,38.6,29.68,NE,48,17.0,19.0,93,0.28,,RA,1.36,19.00,VWS V14.01,2013-02-26 13:30:00,
2013-02-26 08:35:00,40.3,38.4,29.67,ENE,63,12.0,14.0,93,0.22,,RA,1.38,12.00,VWS V14.01,2013-02-26 13:35:00,
2013-02-26 08:40:00,40.6,39.0,29.67,NE,38,10.0,17.0,94,0.23,,RA,1.39,9.00,VWS V14.01,2013-02-26 13:40:00,
2013-02-26 08:45:00,40.6,39.0,29.67,NE,43,12.0,17.0,94,0.24,,RA,1.40,7.00,VWS V14.01,2013-02-26 13:45:00,
2013-02-26 08:50:00,40.6,39.0,29.67,East,82,13.0,17.0,94,0.25,,RA,1.41,7.00,VWS V14.01,2013-02-26 13:50:00,
2013-02-26 08:55:00,40.5,38.6,29.67,NE,55,13.0,17.0,93,0.26,,RA,1.42,5.00,VWS V14.01,2013-02-26 13:55:00,
2013-02-26 09:00:00,40.3,38.4,29.67,ENE,75,13.0,17.0,93,0.27,,RA,1.43,5.00,VWS V14.01,2013-02-26 14:00:00,
2013-02-26 09:05:00,40.1,38.0,29.68,ENE,57,12.0,13.0,92,0.20,,-RA,1.44,7.00,VWS V14.01,2013-02-26 14:05:00,
2013-02-26 09:10:00,40.2,38.3,29.68,NNE,27,9.0,16.0,93,0.20,,-RA,1.44,5.00,VWS V14.01,2013-02-26 14:10:00,
2013-02-26 09:15:00,40.1,38.2,29.68,ENE,58,10.0,16.0,93,0.20,,-RA,1.44,5.00,VWS V14.01,2013-02-26 14:15:00,
2013-02-26 09:20:00,40.3,38.4,29.67,ENE,69,6.0,16.0,93,0.20,,-RA,1.44,7.00,VWS V14.01,2013-02-26 14:20:00,
2013-02-26 09:25:00,40.3,38.4,29.67,ENE,57,10.0,16.0,93,0.20,,-RA,1.44,9.00,VWS V14.01,2013-02-26 14:25:00,
2013-02-26 09:30:00,40.5,38.4,29.67,ENE,78,11.0,16.0,92,0.20,,-RA,1.44,14.00,VWS V14.01,2013-02-26 14:30:00,
2013-02-26 09:35:00,40.9,39.0,29.66,ENE,74,13.0,16.0,93,0.07,,-RA,1.44,12.00,VWS V14.01,2013-02-26 14:35:00,
2013-02-26 09:40:00,40.9,39.0,29.66,ENE,65,10.0,21.0,93,0.07,,-RA,1.44,14.00,VWS V14.01,2013-02-26 14:40:00,
2013-02-26 09:45:00,40.5,38.4,29.66,ENE,61,14.0,21.0,92,0.07,,-RA,1.44,21.00,VWS V14.01,2013-02-26 14:45:00,
2013-02-26 09:50:00,40.8,38.9,29.64,ENE,61,13.0,21.0,93,0.08,,-RA,1.45,30.00,VWS V14.01,2013-02-26 14:50:00,
2013-02-26 09:55:00,40.5,38.1,29.64,ENE,63,11.0,22.0,91,0.08,,-RA,1.45,18.00,VWS V14.01,2013-02-26 14:55:00,
2013-02-26 10:00:00,40.6,38.7,29.64,ENE,67,13.0,22.0,93,0.08,,-RA,1.45,26.00,VWS V14.01,2013-02-26 15:00:00,
2013-02-26 10:05:00,40.6,38.7,29.62,NE,45,12.0,17.0,93,0.02,,-RA,1.45,25.00,VWS V14.01,2013-02-26 15:05:00,
2013-02-26 10:10:00,40.8,38.9,29.62,ENE,61,10.0,18.0,93,0.02,,-RA,1.45,26.00,VWS V14.01,2013-02-26 15:10:00,
2013-02-26 10:15:00,40.8,38.9,29.62,ENE,65,14.0,18.0,93,0.03,,-RA,1.46,35.00,VWS V14.01,2013-02-26 15:15:00,
2013-02-26 10:20:00,40.8,38.9,29.60,NE,49,13.0,18.0,93,0.03,,-RA,1.46,32.00,VWS V14.01,2013-02-26 15:20:00,
2013-02-26 10:25:00,40.6,38.7,29.60,NE,53,17.0,18.0,93,0.03,,-RA,1.46,47.00,VWS V14.01,2013-02-26 15:25:00,
2013-02-26 10:30:00,40.5,38.6,29.60,ENE,57,15.0,18.0,93,0.03,,-RA,1.46,49.00,VWS V14.01,2013-02-26 15:30:00,
2013-02-26 10:35:00,40.9,39.3,29.59,NE,44,14.0,18.0,94,0.02,,-RA,1.46,54.00,VWS V14.01,2013-02-26 15:35:00,
2013-02-26 10:40:00,41.3,39.7,29.59,NE,50,16.0,19.0,94,0.02,,-RA,1.46,53.00,VWS V14.01,2013-02-26 15:40:00,
2013-02-26 10:45:00,41.3,39.7,29.59,ENE,64,7.0,19.0,94,0.02,,-RA,1.46,40.00,VWS V14.01,2013-02-26 15:45:00,
2013-02-26 10:50:00,41.3,39.7,29.59,NE,36,9.0,19.0,94,0.02,,-RA,1.46,39.00,VWS V14.01,2013-02-26 15:50:00,
2013-02-26 10:55:00,41.2,39.3,29.59,NE,36,6.0,19.0,93,0.02,,-RA,1.46,35.00,VWS V14.01,2013-02-26 15:55:00,
2013-02-26 11:00:00,41.3,39.7,29.59,ENE,69,14.0,19.0,94,0.02,,-RA,1.46,40.00,VWS V14.01,2013-02-26 16:00:00,
2013-02-26 11:05:00,41.5,39.6,29.59,ENE,59,13.0,17.0,93,0.01,,-RA,1.46,72.00,VWS V14.01,2013-02-26 16:05:00,
2013-02-26 11:10:00,41.5,39.6,29.59,NE,55,5.0,18.0,93,0.01,,-RA,1.46,60.00,VWS V14.01,2013-02-26 16:10:00,
2013-02-26 11:15:00,41.6,40.0,29.59,NE,49,9.0,18.0,94,0.02,,-RA,1.47,72.00,VWS V14.01,2013-02-26 16:15:00,
2013-02-26 11:20:00,41.5,39.9,29.60,ENE,65,6.0,18.0,94,0.02,,-RA,1.47,54.00,VWS V14.01,2013-02-26 16:20:00,
2013-02-26 11:25:00,41.2,39.6,29.60,ENE,69,2.0,18.0,94,0.03,,-RA,1.48,70.00,VWS V14.01,2013-02-26 16:25:00,
2013-02-26 11:30:00,41.3,39.7,29.60,ENE,71,12.0,18.0,94,0.04,,-RA,1.49,79.00,VWS V14.01,2013-02-26 16:30:00,
2013-02-26 11:35:00,41.2,39.6,29.60,ENE,61,4.0,11.0,94,0.04,,-RA,1.50,74.00,VWS V14.01,2013-02-26 16:35:00,
2013-02-26 11:40:00,41.1,39.5,29.60,ENE,61,2.0,11.0,94,0.04,,-RA,1.50,40.00,VWS V14.01,2013-02-26 16:40:00,
2013-02-26 11:45:00,41.1,39.5,29.60,ENE,65,6.0,11.0,94,0.04,,-RA,1.50,65.00,VWS V14.01,2013-02-26 16:45:00,
2013-02-26 11:50:00,41.1,39.2,29.60,ENE,70,5.0,12.0,93,0.05,,-RA,1.51,135.00,VWS V14.01,2013-02-26 16:50:00,
2013-02-26 11:55:00,41.1,39.5,29.60,ENE,69,11.0,12.0,94,0.05,,-RA,1.51,88.00,VWS V14.01,2013-02-26 16:55:00,
2013-02-26 12:00:00,41.2,39.3,29.60,East,98,10.0,14.0,93,0.06,,-RA,1.52,72.00,VWS V14.01,2013-02-26 17:00:00,
2013-02-26 12:05:00,41.1,39.2,29.60,ENE,70,3.0,9.0,93,0.06,,-RA,1.52,53.00,VWS V14.01,2013-02-26 17:05:00,
2013-02-26 12:10:00,41.2,39.6,29.60,East,94,2.0,9.0,94,0.06,,-RA,1.52,49.00,VWS V14.01,2013-02-26 17:10:00,
2013-02-26 12:15:00,40.9,39.0,29.60,NE,53,7.0,11.0,93,0.06,,-RA,1.52,120.00,VWS V14.01,2013-02-26 17:15:00,
2013-02-26 12:20:00,41.5,39.9,29.59,ENE,73,5.0,13.0,94,0.06,,-RA,1.52,65.00,VWS V14.01,2013-02-26 17:20:00,
2013-02-26 12:25:00,41.3,39.4,29.59,NE,51,11.0,13.0,93,0.06,,-RA,1.52,114.00,VWS V14.01,2013-02-26 17:25:00,
2013-02-26 12:30:00,42.1,40.8,29.59,ENE,63,11.0,17.0,95,0.06,,-RA,1.52,107.00,VWS V14.01,2013-02-26 17:30:00,
2013-02-26 12:35:00,42.3,40.7,29.59,NE,41,2.0,6.0,94,0.02,,-RA,1.52,58.00,VWS V14.01,2013-02-26 17:35:00,
2013-02-26 12:40:00,41.8,39.9,29.59,ENE,60,3.0,12.0,93,0.02,,-RA,1.52,60.00,VWS V14.01,2013-02-26 17:40:00,
2013-02-26 12:45:00,41.8,39.9,29.59,NE,56,5.0,12.0,93,0.02,,-RA,1.52,63.00,VWS V14.01,2013-02-26 17:45:00,
2013-02-26 12:50:00,41.9,40.0,29.57,ENE,61,7.0,12.0,93,0.02,,-RA,1.52,67.00,VWS V14.01,2013-02-26 17:50:00,
2013-02-26 12:55:00,42.2,40.6,29.57,NE,51,7.0,12.0,94,0.02,,-RA,1.52,62.00,VWS V14.01,2013-02-26 17:55:00,
2013-02-26 13:00:00,42.2,40.6,29.57,NE,38,6.0,12.0,94,0.02,,-RA,1.52,51.00,VWS V14.01,2013-02-26 18:00:00,
2013-02-26 13:05:00,42.3,40.4,29.56,ENE,59,4.0,7.0,93,0.00,,,1.52,49.00,VWS V14.01,2013-02-26 18:05:00,
2013-02-26 13:10:00,42.5,40.9,29.56,ENE,62,6.0,11.0,94,0.00,,,1.52,83.00,VWS V14.01,2013-02-26 18:10:00,
2013-02-26 13:15:00,42.6,41.0,29.56,ENE,61,4.0,11.0,94,0.00,,,1.52,62.00,VWS V14.01,2013-02-26 18:15:00,
2013-02-26 13:20:00,42.6,40.7,29.56,NE,52,3.0,11.0,93,0.00,,,1.52,54.00,VWS V14.01,2013-02-26 18:20:00,
2013-02-26 13:25:00,42.9,41.3,29.56,NNE,29,3.0,11.0,94,0.00,,OVC004,1.52,70.00,VWS V14.01,2013-02-26 18:25:00,
2013-02-26 13:30:00,43.2,41.6,29.56,ENE,61,4.0,11.0,94,0.00,,OVC004,1.52,84.00,VWS V14.01,2013-02-26 18:30:00,
2013-02-26 13:35:00,43.1,41.8,29.55,ENE,71,5.0,10.0,95,0.00,,OVC004,1.52,97.00,VWS V14.01,2013-02-26 18:35:00,
2013-02-26 13:40:00,43.3,41.7,29.55,NE,42,7.0,10.0,94,0.00,,OVC004,1.52,105.00,VWS V14.01,2013-02-26 18:40:00,
2013-02-26 13:45:00,43.2,41.6,29.55,NE,47,5.0,12.0,94,0.00,,OVC004,1.52,102.00,VWS V14.01,2013-02-26 18:45:00,
2013-02-26 13:50:00,43.3,41.7,29.54,NE,43,8.0,13.0,94,0.00,,OVC004,1.52,95.00,VWS V14.01,2013-02-26 18:50:00,
2013-02-26 13:55:00,43.5,41.9,29.54,ENE,66,7.0,13.0,94,0.00,,OVC004,1.52,116.00,VWS V14.01,2013-02-26 18:55:00,
2013-02-26 14:00:00,43.5,41.9,29.54,ENE,65,5.0,13.0,94,0.00,,OVC004,1.52,79.00,VWS V14.01,2013-02-26 19:00:00,
2013-02-26 14:05:00,43.3,41.7,29.54,NE,42,6.0,9.0,94,0.00,,,1.52,84.00,VWS V14.01,2013-02-26 19:05:00,
2013-02-26 14:10:00,43.5,41.9,29.54,East,80,5.0,11.0,94,0.00,,,1.52,95.00,VWS V14.01,2013-02-26 19:10:00,
2013-02-26 14:15:00,43.6,41.7,29.54,ENE,70,4.0,11.0,93,0.00,,,1.52,95.00,VWS V14.01,2013-02-26 19:15:00,
2013-02-26 14:20:00,43.5,41.6,29.53,NE,53,3.0,11.0,93,0.00,,,1.52,62.00,VWS V14.01,2013-02-26 19:20:00,
2013-02-26 14:25:00,43.5,41.6,29.53,NE,53,6.0,11.0,93,0.00,,,1.52,114.00,VWS V14.01,2013-02-26 19:25:00,
2013-02-26 14:30:00,43.6,41.7,29.53,ENE,64,4.0,12.0,93,0.00,,,1.52,86.00,VWS V14.01,2013-02-26 19:30:00,
2013-02-26 14:35:00,43.6,41.7,29.53,NE,54,2.0,5.0,93,0.00,,,1.52,69.00,VWS V14.01,2013-02-26 19:35:00,
2013-02-26 14:40:00,43.6,41.7,29.53,NE,55,2.0,5.0,93,0.00,,,1.52,91.00,VWS V14.01,2013-02-26 19:40:00,
2013-02-26 14:45:00,43.6,41.7,29.53,East,82,6.0,7.0,93,0.00,,,1.52,81.00,VWS V14.01,2013-02-26 19:45:00,
2013-02-26 14:50:00,43.9,42.0,29.53,East,79,5.0,7.0,93,0.00,,,1.52,86.00,VWS V14.01,2013-02-26 19:50:00,
2013-02-26 14:55:00,43.8,41.9,29.53,East,80,4.0,7.0,93,0.00,,,1.52,90.00,VWS V14.01,2013-02-26 19:55:00,
2013-02-26 15:00:00,43.6,41.7,29.53,ENE,66,5.0,7.0,93,0.00,,,1.52,88.00,VWS V14.01,2013-02-26 20:00:00,
2013-02-26 15:05:00,43.8,41.9,29.53,East,94,3.0,5.0,93,0.00,,,1.52,86.00,VWS V14.01,2013-02-26 20:05:00,
2013-02-26 15:10:00,43.9,42.3,29.53,East,82,4.0,7.0,94,0.00,,,1.52,91.00,VWS V14.01,2013-02-26 20:10:00,
2013-02-26 15:15:00,43.9,42.0,29.53,East,82,2.0,7.0,93,0.00,,,1.52,83.00,VWS V14.01,2013-02-26 20:15:00,
2013-02-26 15:20:00,43.8,41.9,29.53,East,81,3.0,7.0,93,0.00,,,1.52,84.00,VWS V14.01,2013-02-26 20:20:00,
2013-02-26 15:25:00,44.5,42.9,29.53,ENE,59,2.0,7.0,94,0.00,,,1.52,100.00,VWS V14.01,2013-02-26 20:25:00,
2013-02-26 15:30:00,44.2,42.3,29.53,ENE,78,3.0,7.0,93,0.00,,,1.52,88.00,VWS V14.01,2013-02-26 20:30:00,
2013-02-26 15:35:00,44.3,42.7,29.54,SE,137,3.0,3.0,94,0.00,,,1.52,142.00,VWS V14.01,2013-02-26 20:35:00,
2013-02-26 15:40:00,44.5,42.6,29.54,ESE,123,4.0,5.0,93,0.00,,,1.52,151.00,VWS V14.01,2013-02-26 20:40:00,
2013-02-26 15:45:00,44.3,42.1,29.54,ESE,119,0.0,6.0,92,0.00,,,1.52,90.00,VWS V14.01,2013-02-26 20:45:00,
2013-02-26 15:50:00,44.5,42.3,29.52,ESE,119,0.0,6.0,92,0.00,,,1.52,130.00,VWS V14.01,2013-02-26 20:50:00,
2013-02-26 15:55:00,44.6,42.7,29.52,ESE,116,3.0,6.0,93,0.00,,,1.52,90.00,VWS V14.01,2013-02-26 20:55:00,
2013-02-26 16:00:00,44.6,42.4,29.52,SE,140,0.0,6.0,92,0.00,,,1.52,86.00,VWS V14.01,2013-02-26 21:00:00,
2013-02-26 16:05:00,44.6,42.4,29.52,SE,140,3.0,4.0,92,0.00,,OVC004,1.52,81.00,VWS V14.01,2013-02-26 21:05:00,
2013-02-26 16:10:00,44.8,42.6,29.52,SE,140,0.0,4.0,92,0.00,,OVC004,1.52,97.00,VWS V14.01,2013-02-26 21:10:00,
2013-02-26 16:15:00,44.6,42.4,29.52,SE,139,1.0,4.0,92,0.00,,OVC004,1.52,142.00,VWS V14.01,2013-02-26 21:15:00,
2013-02-26 16:20:00,44.8,42.6,29.52,SE,139,1.0,4.0,92,0.00,,OVC004,1.52,100.00,VWS V14.01,2013-02-26 21:20:00,
2013-02-26 16:25:00,44.6,42.4,29.52,SE,141,0.0,4.0,92,0.00,,OVC004,1.52,162.00,VWS V14.01,2013-02-26 21:25:00,
2013-02-26 16:30:00,44.6,42.1,29.52,SE,138,3.0,4.0,91,0.00,,OVC004,1.52,128.00,VWS V14.01,2013-02-26 21:30:00,
2013-02-26 16:35:00,44.6,42.1,29.52,SSE,150,0.0,3.0,91,0.00,,OVC004,1.52,116.00,VWS V14.01,2013-02-26 21:35:00,
2013-02-26 16:40:00,44.8,42.3,29.52,SSE,150,0.0,3.0,91,0.00,,OVC004,1.52,139.00,VWS V14.01,2013-02-26 21:40:00,
2013-02-26 16:45:00,44.9,42.4,29.52,SSE,150,0.0,3.0,91,0.00,,OVC004,1.52,135.00,VWS V14.01,2013-02-26 21:45:00,
2013-02-26 16:50:00,44.9,42.2,29.51,South,170,0.0,3.0,90,0.00,,OVC004,1.52,102.00,VWS V14.01,2013-02-26 21:50:00,
2013-02-26 16:55:00,45.1,42.3,29.51,South,170,0.0,3.0,90,0.00,,OVC004,1.52,88.00,VWS V14.01,2013-02-26 21:55:00,
2013-02-26 17:00:00,45.1,42.3,29.51,South,170,0.0,3.0,90,0.00,,OVC004,1.52,84.00,VWS V14.01,2013-02-26 22:00:00,
2013-02-26 17:05:00,45.2,42.7,29.51,South,170,0.0,3.0,91,0.00,,OVC004,1.52,72.00,VWS V14.01,2013-02-26 22:05:00,
2013-02-26 17:10:00,45.4,42.6,29.51,South,170,0.0,3.0,90,0.00,,OVC004,1.52,70.00,VWS V14.01,2013-02-26 22:10:00,
2013-02-26 17:15:00,45.4,42.9,29.51,South,177,0.0,3.0,91,0.00,,OVC004,1.52,56.00,VWS V14.01,2013-02-26 22:15:00,
2013-02-26 17:20:00,45.4,42.6,29.50,South,177,0.0,3.0,90,0.00,,OVC004,1.52,65.00,VWS V14.01,2013-02-26 22:20:00,
2013-02-26 17:25:00,45.4,42.6,29.50,South,177,0.0,3.0,90,0.00,,OVC004,1.52,32.00,VWS V14.01,2013-02-26 22:25:00,
2013-02-26 17:30:00,45.4,42.6,29.50,South,177,0.0,3.0,90,0.00,,OVC004,1.52,26.00,VWS V14.01,2013-02-26 22:30:00,
2013-02-26 17:35:00,45.5,42.7,29.52,South,177,0.0,0.0,90,0.00,,OVC004,1.52,19.00,VWS V14.01,2013-02-26 22:35:00,
2013-02-26 17:40:00,45.4,42.3,29.52,South,177,0.0,2.0,89,0.00,,OVC004,1.52,28.00,VWS V14.01,2013-02-26 22:40:00,
2013-02-26 17:45:00,45.4,42.6,29.52,South,177,0.0,2.0,90,0.00,,OVC004,1.52,23.00,VWS V14.01,2013-02-26 22:45:00,
2013-02-26 17:50:00,45.2,42.5,29.53,South,177,0.0,2.0,90,0.00,,OVC004,1.52,30.00,VWS V14.01,2013-02-26 22:50:00,
2013-02-26 17:55:00,45.2,42.5,29.53,South,177,0.0,2.0,90,0.00,,OVC004,1.52,18.00,VWS V14.01,2013-02-26 22:55:00,
2013-02-26 18:00:00,45.2,42.5,29.53,South,177,0.0,2.0,90,0.00,,OVC004,1.52,14.00,VWS V14.01,2013-02-26 23:00:00,
2013-02-26 18:05:00,45.2,42.5,29.54,South,177,0.0,0.0,90,0.00,,OVC004,1.52,11.00,VWS V14.01,2013-02-26 23:05:00,
2013-02-26 18:10:00,45.2,42.5,29.54,South,177,0.0,0.0,90,0.00,,OVC004,1.52,7.00,VWS V14.01,2013-02-26 23:10:00,
2013-02-26 18:15:00,45.4,42.6,29.54,South,177,0.0,0.0,90,0.00,,OVC004,1.52,5.00,VWS V14.01,2013-02-26 23:15:00,
2013-02-26 18:20:00,45.2,42.5,29.54,South,177,0.0,0.0,90,0.00,,OVC004,1.52,0.00,VWS V14.01,2013-02-26 23:20:00,
2013-02-26 18:25:00,45.1,42.3,29.54,South,177,0.0,1.0,90,0.00,,OVC004,1.52,0.00,VWS V14.01,2013-02-26 23:25:00,
2013-02-26 18:30:00,45.1,42.3,29.54,South,177,0.0,1.0,90,0.00,,OVC004,1.52,0.00,VWS V14.01,2013-02-26 23:30:00,
2013-02-26 18:35:00,45.2,42.7,29.55,South,177,1.0,1.0,91,0.00,,OVC004,1.52,0.00,VWS V14.01,2013-02-26 23:35:00,
2013-02-26 18:40:00,45.5,43.3,29.55,South,188,0.0,2.0,92,0.00,,OVC004,1.52,0.00,VWS V14.01,2013-02-26 23:40:00,
2013-02-26 18:45:00,45.4,43.2,29.55,South,188,1.0,3.0,92,0.00,,OVC004,1.52,0.00,VWS V14.01,2013-02-26 23:45:00,
2013-02-26 18:50:00,45.4,43.2,29.55,South,188,0.0,3.0,92,0.00,,OVC004,1.52,0.00,VWS V14.01,2013-02-26 23:50:00,
2013-02-26 18:55:00,45.2,42.7,29.55,South,188,1.0,3.0,91,0.00,,OVC004,1.52,0.00,VWS V14.01,2013-02-26 23:55:00,
2013-02-26 19:00:00,45.2,43.0,29.55,South,188,0.0,3.0,92,0.00,,OVC004,1.52,0.00,VWS V14.01,2013-02-27 00:00:00,
2013-02-26 19:05:00,45.1,42.6,29.55,South,188,0.0,0.0,91,0.00,,OVC004,1.52,0.00,VWS V14.01,2013-02-27 00:05:00,
2013-02-26 19:10:00,45.2,43.0,29.55,South,188,0.0,1.0,92,0.00,,OVC004,1.52,0.00,VWS V14.01,2013-02-27 00:10:00,
2013-02-26 19:15:00,45.2,43.0,29.55,WSW,255,0.0,4.0,92,0.00,,OVC004,1.52,0.00,VWS V14.01,2013-02-27 00:15:00,
2013-02-26 19:20:00,45.2,43.3,29.57,WSW,255,0.0,4.0,93,0.00,,OVC004,1.52,0.00,VWS V14.01,2013-02-27 00:20:00,
2013-02-26 19:25:00,45.1,42.9,29.57,SW,235,0.0,4.0,92,0.00,,OVC015,1.52,0.00,VWS V14.01,2013-02-27 00:25:00,
2013-02-26 19:30:00,45.1,42.9,29.57,SW,236,0.0,4.0,92,0.00,,OVC015,1.52,0.00,VWS V14.01,2013-02-27 00:30:00,
2013-02-26 19:35:00,45.1,43.2,29.56,SW,227,0.0,0.0,93,0.00,,OVC015,1.52,0.00,VWS V14.01,2013-02-27 00:35:00,
2013-02-26 19:40:00,45.1,43.2,29.56,SW,227,0.0,1.0,93,0.00,,OVC015,1.52,0.00,VWS V14.01,2013-02-27 00:40:00,
2013-02-26 19:45:00,45.1,43.2,29.56,SW,227,0.0,1.0,93,0.00,,BKN060,1.52,0.00,VWS V14.01,2013-02-27 00:45:00,
2013-02-26 19:50:00,45.1,43.2,29.56,SW,227,0.0,2.0,93,0.00,,BKN060,1.52,0.00,VWS V14.01,2013-02-27 00:50:00,
2013-02-26 19:55:00,44.9,43.0,29.56,WSW,258,0.0,4.0,93,0.00,,BKN060,1.52,0.00,VWS V14.01,2013-02-27 00:55:00,
2013-02-26 20:00:00,44.9,43.3,29.56,WSW,258,0.0,4.0,94,0.00,,BKN060,1.52,0.00,VWS V14.01,2013-02-27 01:00:00,
2013-02-26 20:05:00,44.8,42.9,29.57,WSW,258,0.0,1.0,93,0.00,,,1.52,0.00,VWS V14.01,2013-02-27 01:05:00,
2013-02-26 20:10:00,44.8,43.2,29.57,WSW,258,0.0,2.0,94,0.00,,,1.52,0.00,VWS V14.01,2013-02-27 01:10:00,
2013-02-26 20:15:00,44.8,43.2,29.57,WSW,250,0.0,2.0,94,0.00,,,1.52,0.00,VWS V14.01,2013-02-27 01:15:00,
2013-02-26 20:20:00,44.8,43.2,29.56,WSW,250,0.0,2.0,94,0.00,,,1.52,0.00,VWS V14.01,2013-02-27 01:20:00,
2013-02-26 20:25:00,44.6,43.0,29.56,SSW,192,0.0,3.0,94,0.00,,,1.52,0.00,VWS V14.01,2013-02-27 01:25:00,
2013-02-26 20:30:00,44.6,43.0,29.56,SW,217,0.0,4.0,94,0.00,,,1.52,0.00,VWS V14.01,2013-02-27 01:30:00,
2013-02-26 20:35:00,44.5,42.9,29.57,South,171,2.0,4.0,94,0.00,,,1.52,0.00,VWS V14.01,2013-02-27 01:35:00,
2013-02-26 20:40:00,44.5,42.9,29.57,SW,218,2.0,6.0,94,0.00,,,1.52,0.00,VWS V14.01,2013-02-27 01:40:00,
2013-02-26 20:45:00,44.3,42.7,29.57,SSW,196,0.0,6.0,94,0.00,,,1.52,0.00,VWS V14.01,2013-02-27 01:45:00,
2013-02-26 20:50:00,44.3,42.7,29.57,SSW,206,0.0,6.0,94,0.00,,,1.52,0.00,VWS V14.01,2013-02-27 01:50:00,
2013-02-26 20:55:00,44.3,42.7,29.57,SW,219,0.0,6.0,94,0.00,,,1.52,0.00,VWS V14.01,2013-02-27 01:55:00,
2013-02-26 21:00:00,44.3,42.7,29.57,SSW,213,0.0,6.0,94,0.00,,,1.52,0.00,VWS V14.01,2013-02-27 02:00:00,
2013-02-26 21:05:00,44.2,42.6,29.57,West,261,0.0,1.0,94,0.00,,,1.52,0.00,VWS V14.01,2013-02-27 02:05:00,
2013-02-26 21:09:00,44.2,42.6,29.57,South,175,0.0,3.0,94,0.00,,,1.52,0.00,VWS V14.01,2013-02-27 02:09:00,
2013-02-26 21:15:00,44.1,42.5,29.57,SSW,193,0.0,4.0,94,0.00,,,1.52,0.00,VWS V14.01,2013-02-27 02:15:00,
2013-02-26 21:20:00,43.9,42.3,29.57,SW,235,0.0,5.0,94,0.00,,,1.52,0.00,VWS V14.01,2013-02-27 02:20:00,
2013-02-26 21:25:00,43.9,42.3,29.57,SSE,157,1.0,5.0,94,0.00,,,1.52,0.00,VWS V14.01,2013-02-27 02:25:00,
2013-02-26 21:30:00,43.9,42.3,29.57,South,190,0.0,5.0,94,0.00,,,1.52,0.00,VWS V14.01,2013-02-27 02:30:00,
2013-02-26 21:35:00,43.8,42.2,29.58,South,190,0.0,2.0,94,0.00,,,1.52,0.00,VWS V14.01,2013-02-27 02:35:00,
2013-02-26 21:40:00,43.8,42.2,29.58,East,88,4.0,4.0,94,0.00,,,1.52,0.00,VWS V14.01,2013-02-27 02:40:00,
2013-02-26 21:45:00,43.8,42.5,29.58,East,88,0.0,4.0,95,0.00,,,1.52,0.00,VWS V14.01,2013-02-27 02:45:00,
2013-02-26 21:50:00,43.8,42.5,29.58,East,88,0.0,4.0,95,0.00,,,1.52,0.00,VWS V14.01,2013-02-27 02:50:00,
2013-02-26 21:55:00,43.6,42.3,29.58,SE,132,0.0,4.0,95,0.00,,,1.52,0.00,VWS V14.01,2013-02-27 02:55:00,
2013-02-26 22:00:00,43.6,42.0,29.58,SE,132,0.0,4.0,94,0.00,,,1.52,0.00,VWS V14.01,2013-02-27 03:00:00,
2013-02-26 22:05:00,43.5,41.9,29.59,SE,132,0.0,1.0,94,0.00,,CLR,1.52,0.00,VWS V14.01,2013-02-27 03:05:00,
2013-02-26 22:10:00,43.6,42.0,29.59,SW,230,0.0,3.0,94,0.00,,CLR,1.52,0.00,VWS V14.01,2013-02-27 03:10:00,
2013-02-26 22:15:00,43.6,42.0,29.59,SSW,211,0.0,5.0,94,0.00,,CLR,1.52,0.00,VWS V14.01,2013-02-27 03:15:00,
2013-02-26 22:20:00,43.8,41.9,29.58,SSE,162,3.0,5.0,93,0.00,,CLR,1.52,0.00,VWS V14.01,2013-02-27 03:20:00,
2013-02-26 22:25:00,43.6,41.2,29.58,SSW,212,0.0,7.0,91,0.00,,CLR,1.52,0.00,VWS V14.01,2013-02-27 03:25:00,
2013-02-26 22:30:00,43.6,40.6,29.58,East,96,0.0,7.0,89,0.00,,CLR,1.52,0.00,VWS V14.01,2013-02-27 03:30:00,
2013-02-26 22:35:00,43.5,40.2,29.58,South,178,0.0,0.0,88,0.00,,CLR,1.52,0.00,VWS V14.01,2013-02-27 03:35:00,
2013-02-26 22:40:00,43.5,40.2,29.58,South,169,0.0,3.0,88,0.00,,CLR,1.52,0.00,VWS V14.01,2013-02-27 03:40:00,
2013-02-26 22:45:00,43.3,39.7,29.58,SW,224,0.0,3.0,87,0.00,,CLR,1.52,0.00,VWS V14.01,2013-02-27 03:45:00,
2013-02-26 22:50:00,43.2,39.3,29.59,SSW,195,3.0,5.0,86,0.00,,CLR,1.52,0.00,VWS V14.01,2013-02-27 03:50:00,
2013-02-26 22:55:00,43.1,38.9,29.59,SSW,195,2.0,9.0,85,0.00,,CLR,1.52,0.00,VWS V14.01,2013-02-27 03:55:00,
2013-02-26 23:00:00,43.1,38.6,29.59,SW,219,3.0,9.0,84,0.00,,CLR,1.52,0.00,VWS V14.01,2013-02-27 04:00:00,
2013-02-26 23:05:00,43.2,38.7,29.60,NW,323,0.0,6.0,84,0.00,,CLR,1.52,0.00,VWS V14.01,2013-02-27 04:05:00,
2013-02-26 23:10:00,43.3,38.8,29.60,SW,235,0.0,9.0,84,0.00,,CLR,1.52,0.00,VWS V14.01,2013-02-27 04:10:00,
2013-02-26 23:15:00,43.3,38.5,29.60,SW,232,3.0,9.0,83,0.00,,CLR,1.52,0.00,VWS V14.01,2013-02-27 04:15:00,
2013-02-26 23:20:00,43.5,38.7,29.60,West,261,0.0,9.0,83,0.00,,CLR,1.52,0.00,VWS V14.01,2013-02-27 04:20:00,
2013-02-26 23:25:00,43.5,37.8,29.60,WSW,238,4.0,9.0,80,0.00,,CLR,1.52,0.00,VWS V14.01,2013-02-27 04:25:00,
2013-02-26 23:30:00,43.8,37.7,29.60,SSW,212,0.0,9.0,79,0.00,,CLR,1.52,0.00,VWS V14.01,2013-02-27 04:30:00,
2013-02-26 23:35:00,44.1,37.7,29.61,SW,220,2.0,5.0,78,0.00,,CLR,1.52,0.00,VWS V14.01,2013-02-27 04:35:00,
2013-02-26 23:40:00,43.9,37.2,29.61,SSE,167,1.0,9.0,77,0.00,,CLR,1.52,0.00,VWS V14.01,2013-02-27 04:40:00,
2013-02-26 23:45:00,44.1,38.0,29.61,WSW,254,0.0,9.0,79,0.00,,CLR,1.52,0.00,VWS V14.01,2013-02-27 04:45:00,
2013-02-26 23:50:00,44.1,37.0,29.61,WSW,239,3.0,9.0,76,0.00,,CLR,1.52,0.00,VWS V14.01,2013-02-27 04:50:00,
2013-02-26 23:55:00,44.2,37.5,29.61,SSE,152,0.0,9.0,77,0.00,,CLR,1.52,0.00,VWS V14.01,2013-02-27 04:55:00,